Location: Saint-Usage
(47.1052°N, 5.2587°E)
Time: 12:26:59
(UTC+01:00)

NOAA 19 - Pass Details

Date: 07 December 2021
Orbit: 841 x 860 km, 99.2° (Epoch: 24 January)

Event Time Altitude Azimuth Distance (km) Brightness Sun altitude
Rises 07:28:28 0° 24° (NNE) 3,433 8.4 -7.2°
Reaches altitude 10° 07:31:10 10° 35° (NE) 2,495 7.8 -6.7°
Maximum altitude 07:35:57 29° 95° (E) 1,518 7.5 -6.0°
Drops below altitude 10° 07:40:43 10° 155° (SSE) 2,488 8.6 -5.3°
Sets 07:43:23 0° 166° (SSE) 3,421 9.1 -4.9°
